Theta_e
303 302 302 301 301 301 300 300 299 299 297 296 295 295 294 294 294 293 293 293 293 293 294 293 294 295 295 295 295 295 295 295 295 296 296 296 296 296 296 296 296 296 296
302 302 301 301 300 300 300 299 297 296 295 295 294 294 294 293 293 293 293 293 293 293 294 294 294 294 295 294 294 294 295 295 295 295 295 296 296 296 296 296 296 295 295
301 301 300 300 299 299 298 297 296 295 295 294 294 293 293 293 292 292 292 293 293 293 293 294 294 294 293 294 294 295 294 295 295 295 295 295 295 295 296 295 295 295 296
300 300 299 299 298 297 296 296 295 295 294 294 293 293 293 292 292 292 293 293 293 293 294 294 294 294 294 295 295 295 295 295 295 295 296 295 295 295 295 295 295 295 295
299 299 299 298 297 296 296 295 295 294 294 293 293 293 292 292 292 293 293 294 294 294 295 295 295 296 297 298 298 298 296 295 295 296 297 296 296 297 297 297 297 297 296
299 298 298 297 296 295 295 295 294 294 294 293 293 292 291 292 293 294 294 294 295 295 296 296 297 296 296 297 298 299 298 299 299 298 297 296 296 298 297 297 297 297 298
298 298 297 297 296 295 295 295 294 294 293 293 292 292 292 291 291 293 294 295 295 296 296 295 295 295 296 296 295 296 296 297 297 298 298 298 298 297 297 298 298 297 298
298 298 297 297 296 295 295 294 294 293 292 292 291 291 291 291 292 293 295 295 295 295 295 295 295 295 295 296 295 295 296 296 296 296 296 296 297 297 297 297 297 298 298
298 297 297 296 295 295 294 294 293 292 291 291 291 290 291 291 292 294 294 294 295 295 295 295 295 295 295 296 296 296 295 295 295 295 296 297 298 299 299 299 299 299 298
298 298 297 295 295 294 294 293 292 291 291 290 290 291 291 291 291 293 294 294 295 295 295 295 295 296 297 296 295 295 295 294 294 295 295 295 296 296 297 299 300 298 299
298 297 296 295 294 294 293 293 291 291 290 290 290 291 291 291 292 293 294 295 295 295 296 295 294 295 295 296 296 295 294 294 296 296 296 296 296 297 298 299 298 298 297
297 297 295 295 294 293 293 292 291 290 289 290 290 291 292 291 291 292 293 295 295 295 296 294 293 294 295 295 294 293 293 295 294 299 297 296 297 297 296 296 298 298 300
297 296 295 294 293 293 292 291 290 289 289 290 291 292 291 291 292 292 293 294 295 295 294 294 294 293 293 291 290 291 293 291 293 295 294 295 296 296 296 296 297 298 298
296 295 294 293 293 292 291 290 289 290 290 291 292 291 291 291 291 292 292 294 294 292 293 292 292 291 289 290 289 289 289 290 292 292 292 294 295 297 296 297 296 297 298
295 294 293 293 292 291 290 290 289 290 291 292 291 292 291 291 291 293 293 294 293 293 293 291 289 288 288 288 288 288 288 289 290 290 290 291 293 296 297 298 298 297 297
294 293 293 292 291 290 289 289 289 290 291 291 290 291 291 291 291 292 293 292 292 292 291 289 289 288 287 287 289 288 288 288 289 290 290 291 294 295 296 298 299 298 297
293 293 292 291 291 289 289 288 288 289 290 289 289 290 290 291 291 292 291 291 290 290 289 289 289 289 288 287 287 288 288 288 288 289 290 291 293 295 296 299 299 298 298
292 292 291 291 289 288 288 288 288 289 288 287 288 288 289 290 291 291 290 290 288 288 289 289 289 289 289 288 287 288 288 288 288 288 290 291 291 293 296 297 298 298 299
291 290 290 290 288 288 288 288 289 287 287 287 287 288 288 289 291 289 289 288 288 288 289 289 289 288 288 289 288 288 288 288 288 289 289 290 292 294 297 298 298 297 295
291 289 290 288 288 288 288 289 287 287 287 287 287 287 287 289 289 288 288 288 288 288 288 288 288 288 288 288 288 288 287 287 288 288 289 290 292 294 297 299 300 301 297
289 288 288 287 287 287 288 288 287 287 287 287 287 287 289 289 288 288 288 288 288 288 288 288 288 288 287 287 287 287 288 287 288 288 289 291 292 293 297 299 301 299 298
288 288 287 287 287 288 288 287 286 286 287 287 287 287 288 287 287 287 287 287 287 287 287 287 287 287 287 287 287 287 287 287 288 288 290 290 291 293 297 299 301 302 299
288 287 287 286 287 287 286 286 286 287 287 287 287 287 287 287 287 287 287 287 287 287 287 287 287 287 287 287 287 287 287 287 287 288 289 290 291 294 297 299 302 302 301
287 286 286 286 286 286 286 287 286 286 287 287 287 287 287 286 286 286 287 287 287 287 287 287 287 287 287 287 287 287 287 287 287 288 289 290 291 296 298 301 302 302 302
286 286 286 286 285 286 286 286 286 286 287 286 286 287 286 286 286 286 286 286 286 287 287 287 287 287 287 287 287 287 287 287 287 288 289 291 294 297 299 301 302 301 302
285 285 285 286 285 286 286 286 286 287 287 286 286 286 286 286 286 286 286 286 286 286 286 287 287 287 287 288 289 288 287 287 288 288 290 292 295 297 300 301 301 302 302
Wind_Speed
3 3 2 3 2 2 1 2 4 5 8 11 13 15 17 19 20 20 21 24 25 26 26 26 28 23 23 26 27 28 28 26 13 31 24 26 26 30 30 29 28 29 29
2 3 3 2 1 3 5 5 6 9 11 13 15 17 20 19 19 22 24 23 24 27 27 22 23 27 29 30 29 31 31 28 26 28 22 24 25 28 34 33 33 29 27
3 4 3 2 4 4 5 8 10 10 12 15 18 19 20 21 23 22 23 23 24 26 29 31 34 32 31 29 29 27 28 29 29 28 25 26 26 26 33 35 30 28 29
1 1 3 4 4 6 8 9 9 13 18 19 19 20 20 23 23 25 23 25 30 31 30 30 31 30 29 29 30 29 28 28 27 25 25 27 25 22 23 24 25 23 26
1 2 5 6 6 8 8 9 13 16 17 18 20 21 22 23 26 23 24 28 26 24 25 27 27 26 29 31 33 27 28 27 25 25 24 24 22 19 18 18 21 25 24
2 6 8 8 10 9 9 13 16 17 17 19 21 22 24 23 22 25 30 29 25 27 24 23 26 25 27 28 28 25 27 23 18 21 14 16 23 17 19 23 22 19 10
6 8 9 10 11 10 13 16 18 18 19 21 22 19 23 29 28 25 24 27 25 23 22 24 26 21 26 23 25 25 26 25 25 24 22 19 20 24 24 23 24 25 25
10 11 11 13 11 13 15 18 19 18 20 19 20 26 28 28 23 23 25 25 23 24 24 24 24 27 25 23 26 28 31 33 31 28 26 30 30 31 30 32 32 32 30
14 16 15 14 13 14 17 19 19 19 16 21 27 27 26 28 23 22 24 23 23 24 24 25 23 26 25 25 26 27 28 30 28 28 31 31 32 32 33 29 29 25 14
14 16 15 12 13 15 17 19 18 13 20 27 27 25 23 22 23 23 22 23 22 22 23 23 24 23 22 26 27 27 23 21 25 28 28 30 31 33 29 29 22 10 13
14 14 12 11 13 15 17 17 14 19 25 27 25 24 22 22 23 23 24 24 22 23 20 22 20 21 25 25 28 22 24 31 32 31 24 25 25 22 26 24 23 25 25
12 11 11 12 13 15 15 15 17 22 27 24 21 21 20 21 24 22 25 23 25 24 20 16 22 21 23 26 24 24 27 26 22 9 14 12 12 14 17 17 19 21 22
11 11 12 12 14 13 15 16 21 24 21 18 17 17 21 23 21 22 22 24 25 22 21 20 22 24 21 23 20 21 20 20 18 6 7 10 10 13 16 17 15 14 16
11 12 11 13 12 14 14 17 21 22 20 18 17 17 21 23 21 21 25 21 17 23 20 21 17 20 19 16 17 17 15 15 15 13 13 13 15 15 15 14 13 12 12
10 11 12 11 11 16 16 19 21 20 18 19 21 18 18 21 22 25 25 25 23 20 24 15 20 20 19 17 14 14 14 16 14 14 14 15 15 15 15 16 16 15 13
9 12 11 11 14 15 18 24 20 17 18 19 22 20 24 22 25 25 25 26 24 21 18 14 14 13 14 15 15 14 14 15 16 16 16 17 18 16 16 16 18 19 18
10 10 13 12 15 16 21 19 17 21 16 21 18 21 20 23 23 24 24 25 21 20 15 16 15 15 13 14 15 15 14 15 17 17 17 19 19 18 19 17 15 20 20
9 12 12 12 14 17 19 19 17 17 18 20 21 21 22 21 24 23 23 22 22 19 18 18 18 18 16 15 15 15 15 15 15 17 19 20 21 18 19 19 19 16 19
13 13 12 11 16 17 20 18 16 16 18 19 23 22 22 22 21 22 21 20 20 21 20 21 19 19 18 16 16 16 16 15 16 17 21 22 21 21 22 21 19 20 22
15 13 11 14 16 22 21 16 15 17 16 20 20 22 26 25 20 23 22 23 22 25 19 23 20 20 18 16 17 15 17 15 15 16 20 21 21 23 24 23 19 13 21
13 12 12 12 17 20 18 16 16 16 18 20 21 23 25 24 23 23 24 24 24 24 25 24 22 21 17 15 16 15 15 15 15 16 20 20 23 24 25 19 19 4 14
12 12 13 14 17 19 17 16 17 18 19 21 23 24 24 23 23 24 25 25 27 29 27 27 24 22 17 15 15 15 14 14 14 14 17 21 25 24 23 20 15 11 13
12 13 14 17 17 16 15 17 18 19 21 21 22 23 24 23 24 25 27 29 30 29 29 27 25 21 17 13 13 14 14 15 13 13 16 20 24 24 24 20 15 14 10
12 12 15 17 17 14 17 18 20 21 21 22 22 23 23 25 26 28 29 30 31 30 29 28 25 21 14 13 12 13 14 15 14 12 12 16 20 24 21 19 15 12 10
12 13 15 17 14 17 18 18 20 23 21 21 24 23 25 26 27 28 30 31 31 31 31 29 26 22 15 11 11 13 13 13 13 10 9 11 16 21 16 14 13 15 16
13 13 15 17 16 19 17 19 20 23 21 23 24 25 26 27 28 29 30 31 33 33 31 31 28 22 14 10 9 10 12 12 12 10 6 7 12 18 17 13 12 10 12
Wind_Direction
138 161 166 156 146 124 331 295 289 301 313 317 317 315 315 313 310 304 300 299 298 298 293 286 282 282 283 286 282 273 265 255 255 279 273 277 272 277 278 276 277 278 279
253 243 208 176 263 315 313 305 310 311 313 316 315 313 311 307 305 303 300 299 299 297 294 286 279 288 284 283 276 268 257 252 255 271 279 275 269 274 279 277 278 278 277
188 199 216 278 309 314 306 307 309 310 313 313 311 310 309 308 307 304 301 299 298 295 291 286 286 284 278 277 273 267 261 256 253 261 270 272 273 270 276 279 276 277 276
182 228 305 313 306 302 305 305 310 315 314 313 310 307 307 307 301 302 294 299 298 294 291 285 284 283 277 269 268 264 265 261 258 260 262 267 266 266 261 270 280 274 275
110 325 307 292 289 300 299 305 312 313 311 308 306 304 303 303 300 294 294 297 291 286 282 280 281 274 276 274 268 263 256 253 250 249 247 251 254 254 243 250 257 277 271
298 318 312 300 300 297 303 311 313 312 311 309 307 305 305 304 300 293 296 292 293 284 284 284 283 290 286 287 289 288 290 281 250 252 243 243 247 240 245 242 244 253 267
298 317 310 303 300 295 307 313 313 312 312 313 308 309 308 306 303 298 295 296 294 291 290 289 288 287 289 283 286 291 288 287 283 280 273 265 256 247 244 245 244 246 247
293 295 300 304 294 302 309 311 311 310 310 310 312 313 312 312 306 301 299 300 298 295 292 288 296 286 288 282 286 284 285 288 284 278 268 268 269 269 258 256 258 253 248
298 300 301 296 291 301 308 312 312 310 309 315 316 315 314 311 310 305 305 299 293 292 292 291 291 288 290 288 287 282 284 282 283 278 274 271 268 265 261 258 246 239 240
317 310 303 292 298 306 311 311 311 308 314 320 317 317 316 310 310 309 304 298 295 294 289 287 281 285 286 290 288 290 290 287 285 278 272 271 270 270 272 271 275 224 234
320 314 303 298 304 311 310 313 310 316 320 320 319 322 318 312 309 309 309 304 303 295 289 303 292 292 292 286 291 305 300 297 295 277 263 264 261 259 272 272 272 259 259
323 317 307 308 312 315 314 312 314 319 321 322 321 313 312 314 310 309 308 309 305 313 299 306 302 290 299 301 307 305 303 315 310 270 240 278 248 261 272 274 275 277 273
313 311 312 312 317 316 315 318 323 325 322 312 308 313 313 316 311 312 312 310 314 306 312 307 309 306 309 306 304 303 312 320 324 350 325 301 297 303 296 282 275 268 254
309 312 315 316 319 318 321 323 327 324 315 303 294 312 316 317 316 317 307 311 322 323 307 311 308 311 310 299 306 308 307 316 323 327 315 301 297 294 287 276 255 239 234
312 315 318 319 322 326 328 328 323 317 309 314 320 305 317 312 313 314 321 321 318 316 319 316 319 319 316 309 298 303 307 314 311 310 301 300 298 294 283 277 252 222 211
320 324 325 316 326 330 330 329 331 320 317 321 319 322 319 316 319 323 326 325 324 326 323 318 304 299 302 301 302 300 303 301 303 306 299 296 294 293 285 272 234 215 220
330 332 324 318 329 335 332 328 321 324 328 326 324 325 322 320 323 325 328 327 329 325 314 304 294 289 285 293 301 299 292 297 302 299 295 295 294 288 279 267 239 216 216
341 334 329 330 339 337 332 328 328 327 326 326 326 324 322 325 326 331 329 329 324 323 311 303 303 296 292 277 289 286 293 295 296 295 298 302 299 288 285 268 251 238 223
350 340 339 336 341 338 336 331 329 327 323 322 323 325 329 326 319 331 331 321 314 313 316 306 308 306 300 291 282 286 289 290 294 303 307 306 304 301 293 287 267 236 221
343 342 342 336 342 342 343 332 331 327 323 323 319 320 323 323 336 329 322 318 315 315 309 314 305 312 302 296 291 288 286 289 296 305 309 310 312 310 304 311 299 264 196
343 347 342 345 343 339 340 336 331 323 321 320 319 325 329 335 324 319 318 318 317 319 316 314 308 309 301 294 289 281 279 285 294 305 310 316 320 316 319 336 337 137 147
348 347 346 340 343 346 341 335 332 324 318 321 323 325 332 327 321 319 321 322 320 319 318 316 311 309 304 294 283 276 273 275 288 304 308 322 327 326 331 334 4 39 152
351 352 354 348 347 343 342 340 336 329 326 326 325 323 325 327 327 325 323 322 321 323 324 321 318 314 311 297 277 264 262 265 277 289 304 320 332 331 337 348 17 37 90
354 355 352 354 352 346 338 335 334 332 332 330 329 324 328 327 325 323 324 325 325 325 326 325 323 322 315 296 276 260 250 256 262 275 293 318 334 343 349 8 27 39 70
357 356 357 356 350 342 336 334 336 327 332 335 328 330 330 329 327 327 327 328 328 328 329 331 331 330 322 299 269 254 240 244 247 256 281 314 338 357 358 18 33 46 70
360 359 356 354 351 343 335 336 337 331 338 334 330 335 332 330 329 329 329 331 331 331 332 334 336 338 324 297 267 246 231 228 235 243 258 314 350 358 5 17 22 38 45